TimePDT,TemperatureF,Dew PointF,Humidity,Sea Level PressureIn,VisibilityMPH,Wind Direction,Wind SpeedMPH,Gust SpeedMPH,PrecipitationIn,Events,Conditions,WindDirDegrees,DateUTC
12:52 AM,95.0,48.0,20,29.59,10.0,NW,11.5,-,N/A,,Clear,310,2013-07-04 07:52:00
1:52 AM,93.9,48.9,21,29.58,10.0,NW,10.4,-,N/A,,Clear,310,2013-07-04 08:52:00
2:52 AM,93.9,48.0,21,29.58,10.0,NW,12.7,19.6,N/A,,Clear,320,2013-07-04 09:52:00
3:52 AM,91.9,48.9,23,29.58,10.0,NNW,10.4,-,N/A,,Clear,340,2013-07-04 10:52:00
4:52 AM,93.0,48.0,21,29.59,10.0,NNW,9.2,-,N/A,,Clear,330,2013-07-04 11:52:00
5:52 AM,84.9,50.0,30,29.61,10.0,Calm,Calm,-,N/A,,Clear,0,2013-07-04 12:52:00
6:52 AM,88.0,59.0,37,29.64,10.0,SE,10.4,-,N/A,,Clear,130,2013-07-04 13:52:00
7:52 AM,89.1,70.0,53,29.68,10.0,SE,17.3,24.2,N/A,,Clear,140,2013-07-04 14:52:00
8:52 AM,90.0,70.0,52,29.70,10.0,SSE,15.0,-,N/A,,Clear,150,2013-07-04 15:52:00
9:52 AM,93.0,71.1,49,29.71,10.0,SSE,12.7,17.3,N/A,,Clear,160,2013-07-04 16:52:00
10:52 AM,95.0,69.1,43,29.70,10.0,SE,6.9,-,N/A,,Clear,130,2013-07-04 17:52:00
11:52 AM,98.1,66.0,35,29.68,10.0,Variable,5.8,-,N/A,,Clear,0,2013-07-04 18:52:00
12:52 PM,102.9,62.1,26,29.65,10.0,SSE,4.6,-,N/A,,Clear,150,2013-07-04 19:52:00
1:52 PM,104.0,62.1,25,29.62,10.0,SE,10.4,-,N/A,,Clear,130,2013-07-04 20:52:00
2:52 PM,106.0,57.9,21,29.60,10.0,SSE,8.1,-,N/A,,Clear,150,2013-07-04 21:52:00
3:52 PM,107.1,55.0,18,29.56,10.0,South,6.9,-,N/A,,Clear,170,2013-07-04 22:52:00
4:52 PM,107.1,50.0,15,29.54,10.0,SE,6.9,-,N/A,,Clear,140,2013-07-04 23:52:00
5:52 PM,107.1,54.0,17,29.53,10.0,SE,6.9,-,N/A,,Clear,130,2013-07-05 00:52:00
6:52 PM,104.0,57.9,22,29.53,10.0,SE,5.8,-,N/A,,Clear,130,2013-07-05 01:52:00
7:52 PM,98.1,61.0,29,29.55,10.0,ESE,3.5,-,N/A,,Clear,120,2013-07-05 02:52:00
8:52 PM,99.0,57.0,25,29.57,10.0,ESE,10.4,-,N/A,,Clear,110,2013-07-05 03:52:00
9:52 PM,95.0,63.0,34,29.61,10.0,Variable,4.6,-,N/A,,Clear,0,2013-07-05 04:52:00
10:52 PM,90.0,64.9,43,29.63,10.0,South,6.9,-,N/A,,Clear,170,2013-07-05 05:52:00
11:52 PM,89.1,68.0,50,29.63,10.0,South,8.1,-,N/A,,Clear,180,2013-07-05 06:52:00